Weather History for KCQX - May, 2013

Change the Weather History Date:

Saturday, May 25, 2013

  Actual Average Record
Temperature  
Mean Temperature 50 °F -  
Max Temperature 57 °F 61 °F 90 °F (2007)
Min Temperature 45 °F 48 °F 43 °F (1987)
Degree Days  
Heating Degree Days 14    
Moisture  
Dew Point 50 °F    
Average Humidity 94    
Maximum Humidity 100    
Minimum Humidity 77    
Precipitation  
Precipitation 0.17 in - - ()
Sea Level Pressure  
Sea Level Pressure 29.70 in    
Wind  
Wind Speed 5 mph (NW)    
Max Wind Speed 10 mph    
Max Gust Speed 23 mph    
Visibility 5 miles    
Events Rain    
Averages and records for this station are not official NWS values.
T = Trace of Precipitation, MM = Missing Value Source: NWS Daily Summary

Daily Weather History Graph

Daily Weather History Graph

Search for Another Location

Airport or City:

Trip Planner

Search our weather history database for the weather conditions in past years. The results will help you decide how hot, cold, wet, or windy it might be!

Date:

Astronomy

May. 25, 2013 Rise Set
Actual Time 5:11 AM EDT 8:02 PM EDT
Civil Twilight 4:39 AM EDT 8:35 PM EDT
Nautical Twilight 3:57 AM EDT 9:16 PM EDT
Astronomical Twilight 3:10 AM EDT 10:04 PM EDT
Moon 8:46 PM EDT (5/25) 5:35 AM EDT (5/25)
Length of Visible Light 15h 56m
Length of Day
14h 50m
Full, 100% of the Moon is Illuminated
May 25
Full
May 31
Last Quarter
Jun 8
New
Jun 16
First Quarter
Jun 23
Full

Hourly Weather History & Observations

Time (EDT) Temp. Windchill Dew Point Humidity Pressure Visibility Wind Dir Wind Speed Gust Speed Precip Events Conditions
12:37 AM 55.4 °F - 55.4 °F 100% 29.72 in 1.8 mi North 4.6 mph - N/A   Overcast
12:52 AM 55.9 °F - 55.9 °F 100% 29.73 in 1.2 mi Variable 4.6 mph - N/A   Overcast
1:20 AM 55.4 °F - 55.4 °F 100% 29.72 in 2.5 mi North 6.9 mph - N/A   Overcast
1:52 AM 54.0 °F - 54.0 °F 100% 29.71 in 2.0 mi North 6.9 mph - 0.01 in   Overcast
2:00 AM 53.6 °F - 53.6 °F 100% 29.70 in 1.5 mi North 4.6 mph - N/A   Overcast
2:52 AM 53.1 °F - 53.1 °F 100% 29.70 in 2.0 mi Variable 3.5 mph - 0.00 in Rain Light Rain
3:17 AM 53.6 °F - 53.6 °F 100% 29.69 in 1.5 mi Variable 4.6 mph - 0.01 in   Overcast
3:52 AM 53.1 °F - 53.1 °F 100% 29.69 in 2.0 mi Variable 3.5 mph - 0.01 in   Overcast
4:11 AM 51.8 °F - 51.8 °F 100% 29.68 in 3.0 mi Variable 4.6 mph - 0.01 in   Overcast
4:46 AM 51.8 °F - 51.8 °F 100% 29.67 in 2.5 mi North 5.8 mph - 0.01 in   Overcast
4:47 AM 52.0 °F - 52.0 °F 100% 29.68 in 2.5 mi North 6.9 mph - 0.01 in   Overcast
4:57 AM 51.8 °F - 51.8 °F 100% 29.67 in 3.0 mi North 6.9 mph - N/A   Overcast
5:52 AM 52.0 °F - 51.1 °F 97% 29.70 in 7.0 mi Variable 5.8 mph - N/A   Overcast
6:13 AM 51.8 °F - 51.8 °F 100% 29.70 in 2.5 mi Variable 6.9 mph - 0.01 in Rain Light Rain
6:35 AM 51.8 °F - 51.8 °F 100% 29.70 in 3.0 mi NW 8.1 mph - 0.01 in Rain Light Rain
6:45 AM 51.8 °F - 51.8 °F 100% 29.71 in 2.5 mi Variable 5.8 mph - 0.02 in Rain Light Rain
6:52 AM 52.0 °F - 51.1 °F 97% 29.71 in 4.0 mi Variable 6.9 mph - 0.02 in Rain Light Rain
7:52 AM 52.0 °F - 51.1 °F 97% 29.70 in 10.0 mi Variable 5.8 mph - N/A   Overcast
8:52 AM 53.1 °F - 51.1 °F 93% 29.71 in 10.0 mi NNW 8.1 mph - N/A   Overcast
9:52 AM 52.0 °F - 50.0 °F 93% 29.73 in 10.0 mi NW 8.1 mph - N/A   Overcast
10:52 AM 52.0 °F - 50.0 °F 93% 29.72 in 8.0 mi Variable 5.8 mph - N/A   Overcast
11:52 AM 52.0 °F - 48.9 °F 89% 29.73 in 6.0 mi NW 4.6 mph - N/A   Overcast
12:11 PM 53.6 °F - 50.0 °F 88% 29.71 in 5.0 mi Variable 4.6 mph - N/A   Overcast
12:23 PM 53.6 °F - 50.0 °F 88% 29.71 in 5.0 mi Variable 3.5 mph - N/A   Overcast
12:52 PM 53.1 °F - 48.9 °F 86% 29.72 in 10.0 mi WNW 6.9 mph - N/A   Overcast
1:52 PM 54.0 °F - 48.9 °F 83% 29.71 in 8.0 mi Variable 4.6 mph - 0.00 in Rain Light Rain
2:38 PM 55.4 °F - 50.0 °F 82% 29.69 in 10.0 mi Calm Calm - 0.00 in   Overcast
2:52 PM 55.0 °F - 48.9 °F 80% 29.69 in 10.0 mi WNW 6.9 mph - 0.00 in   Overcast
3:52 PM 55.9 °F - 48.9 °F 77% 29.68 in 10.0 mi Variable 5.8 mph - N/A   Overcast
4:09 PM 55.4 °F - 48.2 °F 77% 29.68 in 10.0 mi Variable 3.5 mph - N/A   Overcast
4:52 PM 55.0 °F - 48.0 °F 77% 29.68 in 10.0 mi Calm Calm - N/A   Overcast
5:52 PM 53.1 °F - 48.9 °F 86% 29.68 in 3.0 mi Calm Calm - 0.00 in Rain Light Rain
5:58 PM 51.8 °F - 50.0 °F 94% 29.68 in 2.5 mi Calm Calm - 0.00 in Rain Light Rain
6:05 PM 51.8 °F - 51.8 °F 100% 29.67 in 9.0 mi Calm Calm - 0.01 in Rain Light Rain
6:34 PM 51.8 °F - 50.0 °F 94% 29.68 in 2.0 mi NNW 8.1 mph - 0.01 in Rain Light Rain
6:52 PM 51.1 °F - 50.0 °F 96% 29.69 in 2.0 mi Variable 4.6 mph - 0.02 in Rain Light Rain
7:00 PM 51.8 °F - 50.0 °F 94% 29.69 in 1.5 mi NW 8.1 mph - 0.01 in Rain Light Rain
7:42 PM 48.2 °F - 46.4 °F 93% 29.70 in 2.0 mi WNW 9.2 mph 18.4 mph 0.06 in Rain Light Rain
7:52 PM 48.0 °F - 46.9 °F 96% 29.70 in 2.0 mi WNW 8.1 mph 23.0 mph 0.07 in Rain Light Rain
8:12 PM 46.4 °F 42.4 °F 46.4 °F 100% 29.70 in 3.0 mi NW 8.1 mph 17.3 mph 0.01 in Rain Light Rain
8:52 PM 46.9 °F - 46.0 °F 97% 29.71 in 6.0 mi Variable 6.9 mph 19.6 mph 0.02 in Rain Light Rain
9:52 PM 46.0 °F 41.9 °F 45.0 °F 96% 29.71 in 8.0 mi WNW 8.1 mph - 0.01 in   Overcast
9:59 PM 46.4 °F 41.9 °F 44.6 °F 93% 29.71 in 8.0 mi NW 9.2 mph 19.6 mph N/A   Overcast
10:52 PM 46.0 °F 41.0 °F 44.1 °F 93% 29.73 in 10.0 mi WNW 10.4 mph 19.6 mph N/A   Overcast
11:52 PM 45.0 °F 41.2 °F 43.0 °F 93% 29.73 in 10.0 mi West 6.9 mph - N/A   Overcast